Flag for Germany Weather past 2 weeks in Rostock, Mecklenburg-Western Pomerania, Germany

Now
42 °F

Overcast.


Feels Like: 42 °F
Forecast: 38 / 49 °F
Wind: 2 mph from South

Location: Rostock-Warnemuende

Current Time: Mar 27, 2015 at 1:06:39 AM

Latest Report: Mar 27, 2015 at 12:00 AM


Visibility: 7 mi

Pressure: 29.75 "Hg

Humidity: 81%

Dew point: 36 °F

Location of RostockLocation

Historic Weather in Rostock — Graph

°F

Rostock temperature yesterday

Maximum temperature yesterday: 47 °F (at 3:00 AM)
Minimum temperature yesterday: 41 °F (at 1:00 PM)
Average temperature yesterday: 43 °F

Past Weeks' High & Low Weather Summary

 TemperatureHumidityPressure
High58 °F (Mar 17, 4:00 PM)99% (Mar 20, 12:00 PM)30.55 "Hg (Mar 20, 12:00 PM)
Low32 °F (Mar 23, 6:00 AM)22% (Mar 18, 4:00 PM)29.62 "Hg (Mar 26, 3:00 AM)
Average42 °F73%30.24 "Hg
* Reported Midnight between Mar 11 and Mar 12 — Midnight between Mar 26 and Mar 27, Rostock, Weather by CustomWeather, © 2015

Note: Actual official high and low records may vary slightly from our data, if they occured in-between our weather recording intervals... More about our weather records

Advertising

Rostock weather history for previous 24 hours

 ConditionsComfort  
Time TempWeatherWind HumidityBarometerVisibility
12:00 AM
Fri, Mar 27
42 °FOvercast.2 mph81%29.75 "Hg7 mi
11:00 PM
Thu, Mar 26
43 °FOvercast.2 mph80%29.75 "Hg9 mi
10:00 PM42 °FOvercast.2 mph80%29.75 "Hg11 mi
9:00 PM42 °FOvercast.2 mph78%29.75 "Hg12 mi
8:00 PM42 °FPassing clouds.1 mph77%29.75 "Hg12 mi
7:00 PM43 °FPassing clouds.2 mph73%29.75 "Hg16 mi
6:00 PM43 °FOvercast.2 mph74%29.74 "Hg19 mi
5:00 PM42 °FOvercast.3 mph75%29.73 "Hg25 mi
4:00 PM42 °FOvercast.3 mph79%29.72 "Hg19 mi
3:00 PM42 °FOvercast.3 mph86%29.73 "Hg16 mi
2:00 PM41 °FLight rain. Overcast.6 mph87%29.73 "Hg6 mi
1:00 PM41 °FLight rain. Overcast.8 mph85%29.73 "Hg9 mi
12:00 PM41 °FOvercast.8 mph86%29.72 "Hg6 mi
11:00 AM42 °FFog.7 mph89%29.71 "Hg3 mi
10:00 AM42 °FFog.7 mph91%29.70 "Hg2 mi
9:00 AM42 °FFog.8 mph92%29.69 "Hg2 mi
8:00 AM42 °FFog.8 mph93%29.67 "Hg2 mi
7:00 AM42 °FFog.6 mph93%29.67 "Hg2 mi
6:00 AM43 °FFog.3 mph85%29.66 "Hg2 mi
5:00 AM44 °FFog.2 mph83%29.65 "Hg2 mi
4:00 AM45 °FOvercast.2 mph76%29.64 "Hg3 mi
3:00 AM47 °FOvercast.7 mph72%29.62 "Hg3 mi
2:00 AM46 °FOvercast.6 mph72%29.64 "Hg3 mi
1:00 AM46 °FOvercast.6 mph73%29.66 "Hg3 mi
Weather by CustomWeather, © 2015

See weather overviewHow to use our weather pages